Starlink 30145

operational
NORAD ID: 57496 Int'l Des: 2023-113 Owner: SPXS Country: US Constellation: starlink
LEOCIRCULAR

About Starlink 30145

Description loading...

Live Position

Loading 3D Globe...

Upcoming Passes

Altitude History

Altitude vs Time

uPlot chart will show altitude changes over time

Two-Line Element Set

1 57496U 23113B 25353.61840647 .00001119 00000-0 97888-4 0 9991
2 57496 43.0029 92.5727 0001363 271.1322 88.9364 15.02533475131507
Epoch: Dec 19, 2025 • Age: 23 hours

Current Status

Altitude 560.5 km
Velocity 7.59 km/s
Sub-Earth Point 30.25°N, 66.95°W
Launch Date Aug 7, 2023
Age 2.3 years
Type internet

Technical Details

Classification Payload
Mass 730.00 kg
Dry Mass 700.00 kg
Total Mass 730.00 kg
Length 0.30 m
Diameter 4.10 m
Span 29.00 m
Shape Box + pan
Manufacturer SPXS
Bus Type Starlink V2M
Phase Status In Orbit
Owner/State SPXS/US

Large Constellations

Loading constellations...